GEFSSGP_con_maxscp_036.txt.gz
SCP
0 0 0 0 0 0 0 0 0 0 0 0 0 0 0 0 0 0 0 0 0 0 0 0 0 1 1 1 1 1 1 1 1 1 1 1 1 1 0 0 0 0 0 0 0 0 0 0 0
0 0 0 0 0 0 0 0 0 0 0 0 0 0 0 0 0 0 0 0 0 0 0 0 0 1 1 1 1 1 1 1 1 1 1 1 1 0 0 0 0 0 0 0 0 0 0 0 0
0 0 0 0 0 0 0 0 0 0 0 0 0 0 0 0 0 0 0 0 0 0 0 0 1 1 1 1 1 1 1 1 1 1 1 1 0 0 0 0 0 0 0 0 0 0 0 0 0
0 0 0 0 0 0 0 0 0 0 0 0 0 0 0 0 0 0 0 0 0 0 0 0 1 1 1 1 1 1 1 1 1 1 1 1 0 0 0 0 0 0 0 0 0 0 0 0 0
0 0 0 0 0 0 0 0 0 0 0 0 0 0 0 0 0 0 0 0 0 0 0 0 1 1 1 1 1 1 1 1 1 1 1 0 0 0 0 0 0 0 0 0 0 0 0 0 0
0 0 0 0 0 0 0 0 0 0 0 0 0 0 0 0 0 0 0 0 0 0 0 1 1 1 1 1 1 1 1 1 1 1 1 0 0 0 0 0 0 0 0 0 0 0 0 0 0
0 0 0 0 0 0 0 0 0 0 0 0 0 0 0 0 0 0 0 0 0 1 1 1 1 1 1 1 1 1 1 1 1 1 1 0 0 0 0 0 0 0 0 0 0 0 0 0 0
0 0 0 0 0 0 0 0 0 0 0 0 0 0 0 0 0 0 0 0 1 1 1 1 1 1 1 1 1 1 1 1 1 1 1 0 0 0 0 0 0 0 0 0 0 0 0 0 0
0 0 0 0 0 0 0 0 0 0 0 0 0 0 0 0 0 0 0 1 1 1 1 1 1 1 1 1 1 1 1 1 1 1 1 1 0 0 0 0 0 0 0 0 0 0 0 0 0
0 0 0 0 0 0 0 0 0 0 0 0 0 0 0 1 1 0 0 0 1 1 1 1 1 1 1 1 1 1 1 1 1 1 1 1 1 1 1 0 0 0 0 0 0 0 0 1 1
0 0 0 0 0 0 0 0 0 0 0 0 0 1 1 1 1 1 0 0 1 1 1 1 1 1 1 2 2 2 2 2 1 1 1 1 1 1 1 1 1 1 1 1 1 1 1 1 1
0 0 0 0 0 0 0 0 0 0 0 0 1 1 1 1 1 1 1 1 1 1 1 1 1 1 2 2 2 2 2 2 2 2 2 1 1 1 1 1 1 1 1 1 1 1 1 1 1
0 0 0 0 0 0 0 0 0 0 0 1 1 1 2 2 1 1 1 1 1 1 1 1 1 2 2 2 2 2 2 2 2 2 2 2 2 2 1 1 1 1 1 2 2 3 3 3 2
0 0 0 0 0 0 0 0 0 0 1 1 1 1 2 2 1 1 1 1 2 1 1 1 1 2 2 2 2 2 2 2 2 2 2 2 2 2 2 2 2 2 2 2 2 4 5 4 3
0 0 0 0 0 0 0 0 0 1 1 2 2 2 2 2 2 1 1 2 2 2 2 2 2 2 2 2 2 2 2 2 2 2 2 2 2 2 2 2 2 2 2 2 3 3 4 4 3
0 0 0 0 0 0 0 1 1 1 2 3 3 3 3 3 2 2 2 2 2 3 3 2 2 2 2 2 2 2 2 2 2 2 2 2 2 2 2 2 2 2 3 3 7 9 7 3 3
0 0 0 0 0 0 1 1 2 2 3 3 4 4 4 4 3 3 3 3 3 3 3 3 3 2 2 2 2 3 3 3 3 3 2 2 2 2 2 2 2 3 3 3 10 16 9 3 3
0 0 0 0 0 0 1 2 3 3 4 4 4 5 4 4 4 4 4 4 4 4 3 3 3 3 3 3 3 3 3 3 3 3 3 2 2 2 3 3 3 3 3 3 7 10 7 3 3
0 0 0 0 0 0 1 2 3 3 4 4 4 4 3 3 4 4 5 4 4 4 3 3 3 3 3 3 3 3 3 3 3 3 2 2 2 2 3 3 3 3 3 3 3 4 4 3 3
0 0 0 0 0 0 1 1 2 2 3 3 3 3 3 3 4 5 5 4 3 3 3 2 3 3 3 3 3 3 3 2 2 2 2 2 2 2 2 3 3 3 3 3 3 3 3 4 4
0 0 0 0 0 0 0 0 1 1 2 2 3 3 3 3 4 4 4 3 3 2 2 2 2 2 2 2 2 2 2 2 2 1 1 1 1 1 2 2 3 3 3 3 2 3 3 4 4
0 0 0 0 0 0 0 0 0 1 2 2 2 3 3 3 3 3 3 2 2 1 1 1 2 2 2 2 2 2 1 1 1 1 1 1 1 1 1 2 2 2 2 2 2 2 3 3 3
0 0 0 0 0 0 0 0 0 1 1 1 1 2 2 2 1 1 1 1 1 1 1 1 2 2 2 2 2 1 1 1 1 1 1 0 1 1 1 1 1 1 2 2 2 2 2 2 3
0 0 0 0 0 0 0 0 0 0 1 1 1 1 1 1 1 1 1 1 1 1 1 1 1 1 1 1 1 1 1 1 1 0 0 0 0 0 1 1 1 1 1 1 1 2 2 2 2
0 0 0 0 0 0 0 0 0 0 0 0 1 0 0 0 0 0 0 0 0 1 1 1 1 1 1 1 1 1 1 1 0 0 0 0 0 0 0 0 1 1 1 1 1 1 2 2 2
0 0 0 0 0 0 0 0 0 0 0 0 0 0 0 0 0 0 0 0 0 1 1 1 1 1 1 1 1 1 1 0 0 0 0 0 0 0 0 0 0 0 1 1 1 1 2 2 2
0 0 0 0 0 0 0 0 0 0 0 0 0 0 0 0 0 0 0 0 0 0 1 1 1 1 1 0 0 0 0 0 0 0 0 0 0 0 0 0 0 0 1 1 1 1 1 1 1
0 0 0 0 0 0 0 0 0 0 0 0 0 0 0 0 0 0 0 0 0 0 0 1 1 1 1 0 0 0 0 0 0 0 0 0 0 0 0 0 0 0 0 1 1 1 1 1 1
0 0 0 0 0 0 0 0 0 0 0 0 0 0 0 0 0 0 0 0 0 0 0 0 0 0 0 0 0 0 0 0 0 0 0 0 0 0 0 0 0 0 0 0 0 1 1 1 1
0 0 0 0 0 0 0 0 0 0 0 0 0 0 0 0 0 0 0 0 0 0 0 0 0 0 0 0 0 0 0 0 0 0 0 0 0 0 0 0 0 0 0 0 0 0 1 1 1

GEFSSGP_con_maxscp_042.txt.gz
SCP
0 0 0 0 0 0 0 0 0 0 0 0 0 0 0 0 0 0 0 0 0 0 0 0 0 0 0 0 0 0 0 0 0 0 0 0 0 0 0 0 0 0 0 0 0 0 0 0 0
0 0 0 0 0 0 0 0 0 0 0 0 0 0 0 0 0 0 0 0 0 0 0 0 0 0 0 0 0 0 0 0 0 0 0 0 0 0 0 0 0 0 0 0 0 0 0 0 0
0 0 0 0 0 0 0 0 0 0 0 0 0 0 0 0 0 0 0 0 0 0 0 0 0 0 0 0 0 0 0 0 0 0 0 0 0 0 0 0 0 0 0 0 0 0 0 0 0
0 0 0 0 0 0 0 0 0 0 0 0 0 0 0 0 0 0 0 0 0 0 0 0 0 0 0 0 0 0 0 0 0 0 0 0 0 0 0 0 0 0 0 0 0 0 0 0 0
0 0 0 0 0 0 0 0 0 0 0 0 0 0 0 0 0 0 0 0 0 0 0 0 0 0 0 0 0 0 0 0 0 0 0 0 0 0 0 0 0 0 0 0 0 0 0 0 0
0 0 0 0 0 0 0 0 0 0 0 0 0 0 0 0 0 0 0 0 0 0 0 0 0 0 0 0 0 0 0 0 1 1 1 1 1 1 0 0 0 0 0 0 0 0 0 0 0
0 0 0 0 0 0 0 0 0 0 0 0 0 0 0 0 0 0 0 0 0 0 0 0 0 0 0 1 1 1 1 1 1 1 1 1 1 1 1 1 0 0 0 0 0 0 0 0 0
0 0 0 0 0 0 0 0 0 0 0 0 0 0 0 0 0 0 0 0 0 0 0 0 0 0 0 1 1 1 1 1 1 1 1 1 1 1 1 1 1 1 1 0 0 0 0 0 1
0 0 0 0 0 0 0 0 0 0 0 0 0 0 0 1 1 1 1 1 0 0 0 0 0 0 0 1 1 1 1 1 1 1 1 1 1 1 1 1 1 1 1 1 1 1 1 1 1
0 0 0 0 0 0 0 0 0 0 0 0 0 0 1 1 1 1 1 1 1 1 1 1 1 1 1 1 1 1 1 1 1 1 1 1 1 1 1 1 1 1 1 1 1 1 1 1 1
0 0 0 0 0 0 0 0 0 0 0 0 0 1 1 1 1 1 1 1 1 1 1 1 1 1 1 1 1 1 1 1 2 2 2 1 1 1 1 1 2 2 1 1 1 1 1 1 1
0 0 0 0 0 0 0 0 0 0 0 0 1 1 1 1 1 2 2 1 1 1 1 1 1 1 1 1 1 1 1 2 2 2 2 2 2 2 2 2 2 2 2 2 2 2 2 2 2
0 0 0 0 0 0 0 0 0 0 1 1 1 1 2 2 2 2 2 2 1 1 1 1 1 2 2 2 2 2 2 2 2 2 2 1 1 2 2 2 2 2 2 3 3 3 3 2 2
0 0 0 0 0 0 0 0 0 1 1 1 1 2 2 2 2 2 2 2 2 2 2 2 2 2 3 3 3 2 2 2 2 2 2 1 1 2 2 2 2 2 3 3 3 3 3 3 3
0 0 0 0 0 0 0 0 1 1 1 1 2 2 2 2 2 2 2 2 2 2 2 2 2 2 3 3 3 2 2 2 2 2 2 2 2 2 2 2 2 2 3 3 3 3 4 4 4
0 0 0 0 0 0 0 1 2 2 2 2 2 2 3 3 3 3 3 2 2 3 3 2 2 2 3 2 2 2 2 1 1 1 1 1 1 2 2 2 2 2 3 3 3 4 4 4 5
0 0 0 0 0 0 0 1 2 3 3 3 3 3 3 4 4 4 3 2 2 2 3 3 3 3 2 2 2 2 2 2 2 2 1 1 1 1 1 1 2 2 3 3 3 4 4 4 5
0 0 0 0 0 0 0 1 3 3 3 3 3 3 3 4 5 4 3 3 2 2 3 3 3 3 3 3 2 2 2 2 2 2 1 1 1 1 1 1 1 2 2 2 3 3 4 4 4
0 0 0 0 0 0 1 1 2 3 3 3 3 3 3 4 4 4 4 4 3 3 4 4 4 4 4 3 2 2 2 2 1 1 1 1 1 1 1 1 1 2 2 2 3 3 3 3 4
0 0 0 0 0 0 1 1 2 2 3 3 3 3 3 4 4 5 5 5 5 5 4 4 4 3 3 2 2 2 2 1 1 1 1 1 2 2 2 2 1 1 2 2 2 3 3 3 4
0 0 0 0 0 0 0 1 1 2 2 3 4 5 5 5 5 5 6 6 6 6 5 4 3 3 2 1 1 2 2 2 1 1 1 2 2 3 2 2 1 1 1 1 2 2 3 3 3
0 0 0 0 0 0 0 0 1 1 2 3 5 6 6 6 5 5 6 6 6 5 5 3 3 2 2 2 2 3 2 2 1 1 2 2 2 2 2 2 1 1 1 1 1 2 2 3 3
0 0 0 0 0 0 0 0 0 1 2 2 4 4 5 5 5 5 5 4 4 4 4 4 4 3 3 3 4 4 3 2 2 2 2 2 1 1 1 1 1 1 1 1 1 2 2 2 3
0 0 0 0 0 0 0 0 0 1 1 2 2 3 3 3 4 4 4 3 3 3 4 4 4 4 4 4 5 4 4 3 3 2 2 1 1 1 1 1 1 1 1 1 1 1 2 2 2
0 0 0 0 0 0 0 0 1 1 1 1 1 2 3 3 3 3 3 2 2 2 3 4 5 5 5 5 5 5 4 4 3 2 2 1 1 1 1 1 1 1 1 1 1 1 1 1 2
0 0 0 0 0 0 0 0 1 1 1 1 1 2 2 2 2 2 2 2 2 2 2 3 5 6 6 5 5 5 5 4 3 3 2 1 1 1 1 1 1 1 0 0 1 1 1 1 1
0 0 0 0 0 0 0 0 1 1 1 1 1 1 2 2 2 2 2 1 1 2 2 4 6 7 7 6 6 6 5 4 4 3 2 2 1 1 1 1 1 1 0 0 1 1 1 1 1
0 0 0 0 0 0 0 0 1 1 1 1 1 1 1 1 1 1 1 1 1 2 2 4 5 7 7 6 6 5 4 4 4 3 3 2 2 2 1 1 1 1 1 1 1 1 1 1 1
0 0 0 0 0 0 0 0 1 1 1 0 0 0 0 0 0 1 1 1 1 1 2 2 3 3 4 4 4 4 4 4 4 4 3 3 3 2 1 1 1 1 1 1 1 1 1 1 1
0 0 0 0 0 0 0 0 1 1 0 0 0 0 0 0 0 0 0 1 1 1 1 1 1 1 1 1 2 3 4 5 4 3 3 3 3 2 2 1 1 1 1 1 0 0 0 1 1

GEFSSGP_con_maxscp_048.txt.gz
SCP
0 0 0 1 1 1 1 0 0 0 0 0 0 0 0 0 0 0 0 0 1 0 0 0 0 0 0 0 0 0 0 0 0 0 0 0 0 0 0 0 0 0 0 0 0 0 0 0 0
0 0 0 1 1 1 0 0 0 0 0 0 0 0 0 0 0 0 0 0 1 0 0 0 0 0 0 0 0 0 0 0 0 0 0 0 0 0 0 0 0 0 0 0 0 0 0 0 0
0 0 0 0 1 0 0 0 0 0 0 0 0 0 0 0 0 0 0 0 0 0 0 0 1 0 0 0 0 0 0 0 0 0 0 0 0 0 0 0 0 0 0 0 0 0 0 0 0
0 0 0 0 0 0 0 0 0 0 0 0 0 0 0 0 0 0 0 0 0 0 0 1 1 0 0 0 0 0 0 0 0 0 0 0 0 0 0 0 0 0 0 0 0 0 0 0 0
0 0 0 0 0 0 0 0 0 0 0 0 0 0 0 0 0 0 0 0 0 1 1 1 1 1 0 0 0 0 0 0 0 0 0 0 0 0 0 0 0 0 0 0 0 0 0 0 0
0 0 0 0 0 0 0 0 0 0 0 0 0 0 0 0 0 0 0 0 1 1 1 1 1 1 0 0 0 0 0 0 0 0 1 1 0 1 1 1 1 1 1 1 1 1 1 1 1
0 0 0 0 0 0 0 0 0 0 0 0 0 0 0 0 0 0 0 0 1 2 2 1 1 1 1 0 0 1 1 1 1 1 1 1 1 1 1 1 1 1 1 1 1 1 1 1 1
0 0 0 0 0 0 0 0 0 0 0 0 0 1 1 0 0 0 0 1 1 2 2 1 1 1 1 1 1 1 1 1 1 1 1 1 1 1 1 1 1 1 1 1 1 1 1 1 1
0 0 0 0 0 0 0 0 0 0 0 0 1 1 1 1 0 0 0 1 1 2 1 1 1 1 1 1 1 1 1 1 1 1 1 1 1 1 2 2 2 2 2 2 2 2 2 2 2
0 0 0 0 0 0 0 0 0 0 1 1 1 1 1 1 1 1 1 1 1 1 1 2 2 2 1 2 2 2 2 2 2 2 2 2 2 1 1 2 3 3 3 3 2 2 2 2 2
0 0 0 0 0 0 0 0 0 1 2 2 2 2 1 1 1 1 1 1 2 2 2 2 3 3 2 2 2 2 2 3 3 2 3 3 2 2 2 2 3 3 3 3 2 2 2 2 2
0 0 0 0 0 0 0 0 1 1 2 2 2 2 1 2 2 2 2 2 2 2 2 3 4 4 3 3 3 2 2 3 3 3 3 3 3 3 2 2 3 3 3 3 3 3 3 3 3
0 0 0 0 0 0 0 0 1 1 2 2 2 2 2 2 2 3 4 4 4 3 3 5 5 5 4 3 3 3 3 3 3 4 4 4 4 4 3 3 3 3 3 3 3 3 3 4 4
0 0 0 0 0 0 0 0 1 1 2 2 1 2 2 2 3 4 6 6 5 4 5 6 6 6 5 4 4 3 3 3 4 4 4 4 4 4 4 3 3 3 3 3 3 3 3 4 4
0 0 0 0 0 0 0 0 1 1 2 2 2 2 2 3 3 5 6 7 6 6 7 8 8 7 6 5 5 4 4 4 5 5 5 4 4 4 3 3 3 2 2 2 2 3 3 3 3
0 0 0 0 0 0 0 0 1 1 1 2 2 2 3 4 5 6 7 7 6 7 10 11 9 8 7 7 6 5 5 5 5 5 5 4 3 3 3 2 2 2 2 2 2 2 3 3 3
0 0 0 0 0 0 0 0 1 1 1 2 2 3 5 7 8 8 7 7 7 10 14 15 13 11 10 8 7 6 6 5 5 5 5 4 3 3 2 2 2 2 2 2 2 2 3 3 3
0 0 0 0 0 0 0 0 0 1 2 2 3 4 6 9 10 9 8 8 10 14 18 20 18 15 12 10 9 8 6 5 5 5 4 4 3 2 2 2 2 2 2 2 2 2 2 3 3
0 0 0 0 0 0 0 0 0 2 3 4 5 6 8 11 12 12 11 11 13 17 21 22 18 14 12 11 11 9 6 4 3 3 3 3 2 2 2 2 2 2 2 2 2 2 2 2 2
0 0 0 0 0 0 0 0 1 3 5 7 8 9 10 11 12 13 13 14 15 18 21 20 16 12 11 10 9 7 5 3 3 3 3 3 2 2 2 2 2 2 2 2 2 2 2 2 2
0 0 0 0 0 0 0 0 1 4 7 9 10 9 9 10 10 11 12 13 14 16 18 18 15 12 10 9 7 6 5 3 3 3 3 3 3 2 2 2 2 2 2 2 2 2 2 1 1
0 0 0 0 0 0 0 0 2 4 6 7 7 7 8 8 7 8 9 10 11 12 14 15 14 11 9 8 7 6 5 4 3 4 4 4 3 2 2 2 2 2 2 2 2 1 1 1 1
0 0 0 0 0 0 0 0 1 3 4 4 4 5 6 6 6 6 7 7 7 8 9 10 10 10 9 8 7 6 6 5 5 5 5 4 3 3 2 2 2 3 3 2 2 1 1 1 1
0 0 0 0 0 0 0 1 1 2 3 3 4 5 6 5 4 4 5 5 5 6 7 8 9 9 8 8 7 7 7 6 6 5 5 4 3 3 3 3 3 3 3 2 2 1 1 1 1
0 0 0 0 0 1 1 1 1 2 3 3 4 5 5 5 4 4 4 4 5 5 7 9 9 9 9 8 8 8 8 7 7 6 5 5 4 4 4 4 4 3 3 2 2 1 1 1 1
0 0 0 0 0 1 1 1 2 3 3 3 3 4 4 4 4 4 4 3 4 5 7 8 9 9 9 9 9 9 9 8 8 7 7 6 5 5 5 5 4 3 3 2 2 2 1 1 1
0 0 0 0 0 0 1 2 3 3 3 3 2 2 3 3 3 3 3 3 3 3 4 4 5 6 7 8 9 9 9 9 8 8 8 8 7 6 5 5 4 3 3 2 2 2 1 1 1
0 0 0 0 0 0 1 1 2 3 3 2 2 2 1 1 2 2 1 1 1 1 1 1 2 3 4 5 6 7 7 7 8 8 8 8 7 6 5 5 4 4 3 2 2 2 2 1 1
0 0 0 0 0 0 0 1 2 3 2 2 2 1 1 1 0 0 0 0 0 0 0 0 0 1 1 2 3 4 4 4 5 6 6 6 6 6 5 4 4 4 3 3 2 2 2 2 1
0 0 0 0 0 0 1 1 2 3 2 2 1 1 0 0 0 0 0 0 0 0 0 0 0 0 0 1 1 2 2 2 2 3 3 4 5 5 5 4 4 4 4 3 2 2 1 1 1

GEFSSGP_con_maxscp_054.txt.gz
SCP
0 0 0 0 0 0 0 0 0 0 0 0 0 0 0 0 0 0 0 0 0 0 1 1 1 1 0 0 0 0 0 0 0 0 0 0 0 0 0 0 0 0 0 0 0 0 0 0 0
0 0 0 0 0 0 0 0 0 0 0 0 0 0 0 0 0 0 0 0 0 1 1 1 1 1 1 0 0 0 0 0 0 0 0 0 0 0 0 0 0 0 0 0 0 0 0 0 0
0 0 0 0 0 0 0 0 0 0 0 0 0 0 0 0 0 0 0 0 1 1 1 1 1 1 1 1 1 0 0 0 0 0 0 0 0 0 0 0 0 0 0 0 0 0 0 0 0
0 0 0 0 0 0 0 0 0 0 0 0 0 0 0 0 0 0 0 1 1 1 1 1 1 1 1 1 1 1 1 0 0 0 0 0 0 0 0 0 0 0 0 0 0 0 0 0 0
0 0 0 0 0 0 0 0 0 0 0 0 0 0 0 0 1 1 1 1 1 1 1 1 1 1 1 1 1 1 1 1 1 1 0 0 0 0 0 0 0 0 0 0 0 0 0 0 0
0 0 0 0 0 0 0 0 0 0 0 0 0 0 0 0 1 1 1 1 1 1 1 1 1 1 1 1 1 1 1 1 1 1 1 0 0 0 0 0 0 0 0 0 0 0 0 0 0
0 0 0 0 0 0 0 0 1 1 0 0 0 0 0 0 1 1 1 1 1 1 1 1 1 1 1 1 1 1 1 1 1 1 1 1 0 0 0 0 0 0 1 1 1 1 1 1 1
0 0 0 0 0 0 0 0 1 1 1 1 1 0 0 0 1 1 1 1 1 1 1 1 1 1 1 1 1 1 1 1 1 1 1 1 0 0 0 0 1 1 1 1 1 1 1 1 1
0 0 0 0 0 0 0 0 1 1 1 1 1 1 1 1 2 2 2 2 2 1 1 1 1 1 1 1 1 1 1 1 1 1 1 1 1 1 1 1 1 1 1 1 1 1 1 1 1
0 0 0 0 0 0 0 0 1 1 1 1 1 1 1 2 3 4 4 4 3 2 2 1 1 2 2 1 1 1 1 1 1 1 1 1 1 1 1 1 1 1 1 1 1 1 1 1 1
0 0 0 0 0 0 0 0 1 1 1 1 1 1 2 2 3 5 6 6 5 3 2 2 2 2 2 2 1 1 1 1 1 1 1 1 1 1 1 1 1 1 1 1 1 2 2 2 2
0 0 0 0 0 0 0 0 1 1 1 1 1 2 2 2 3 4 6 7 6 5 3 2 2 2 2 2 2 1 1 1 1 1 1 1 1 1 1 1 1 1 1 1 1 2 2 2 2
0 0 0 0 0 0 0 1 1 1 1 2 2 2 2 2 2 4 6 8 9 7 4 2 2 2 2 2 2 2 2 2 2 1 1 1 1 1 1 1 1 1 1 1 1 1 1 1 1
0 0 0 0 0 0 0 1 1 1 2 2 2 2 2 2 2 4 6 9 10 8 6 4 3 3 3 3 4 3 3 2 2 3 3 2 2 2 1 1 1 1 1 1 1 1 1 1 1
0 0 0 0 0 0 0 1 1 2 2 2 2 3 4 4 3 4 5 7 8 8 7 5 4 5 5 6 6 5 4 3 3 4 5 3 2 2 2 1 1 1 1 1 1 1 1 1 1
0 0 0 0 0 0 0 1 1 2 2 2 3 5 6 6 5 4 5 6 6 7 7 7 6 7 8 8 7 6 5 4 3 3 4 3 3 2 2 2 2 1 1 1 1 1 1 1 1
0 0 0 0 0 0 0 1 1 2 3 4 5 7 8 8 7 6 7 6 6 7 8 8 9 9 9 9 8 6 5 4 4 3 3 3 3 3 2 2 2 1 1 1 1 1 1 1 1
0 0 0 0 0 0 0 1 2 3 5 6 7 8 10 11 10 9 9 8 7 7 9 10 11 9 9 10 8 6 5 5 4 4 3 3 3 3 2 2 1 1 1 1 1 1 0 0 0
0 0 0 0 0 0 1 1 2 4 6 7 8 10 12 14 13 12 11 9 7 7 9 10 10 9 8 8 7 6 5 5 4 4 3 3 2 2 2 2 1 1 0 0 0 0 0 0 0
0 0 0 0 0 0 1 1 2 4 5 6 8 10 12 15 15 13 10 8 6 6 7 7 7 7 6 6 5 4 4 4 4 3 3 2 2 2 2 1 1 0 0 0 0 0 0 0 0
0 0 0 0 0 0 0 1 2 3 4 5 6 8 10 12 13 11 8 5 5 5 5 4 4 4 3 3 2 2 3 3 2 2 2 2 2 1 1 1 1 1 0 0 0 0 0 0 0
0 0 0 0 0 0 0 1 1 2 3 4 4 5 6 6 7 6 5 4 3 3 3 3 3 2 2 1 1 2 2 2 2 2 2 1 1 1 1 1 1 1 0 0 0 0 0 0 0
0 0 0 0 0 0 0 0 1 2 2 2 2 3 3 3 3 3 2 2 2 2 2 2 2 1 1 1 1 2 2 2 1 1 1 1 1 1 1 1 1 1 1 0 0 0 0 0 0
0 0 0 0 0 0 0 0 1 1 1 1 1 1 1 1 1 1 1 1 1 1 1 1 1 1 1 1 1 1 1 1 1 1 1 1 1 1 1 1 1 1 1 1 0 0 0 0 0
0 0 0 0 0 0 0 0 1 1 1 1 0 0 0 0 0 0 0 0 0 0 0 0 0 0 0 0 1 1 1 1 1 1 1 1 1 1 1 1 1 1 1 1 0 0 0 0 0
0 0 0 0 0 0 0 0 1 1 1 1 0 0 0 0 0 0 0 0 0 0 0 0 0 0 0 0 0 0 0 0 0 0 0 0 0 1 1 1 1 1 1 1 1 0 0 0 0
0 0 0 0 0 0 0 0 1 1 1 1 1 0 0 0 0 0 0 0 0 0 0 0 0 0 0 0 0 0 0 0 0 0 0 0 0 0 1 1 1 1 1 1 1 0 0 0 0
0 0 0 0 0 0 0 0 1 1 1 1 1 0 0 0 0 0 0 0 0 0 0 0 0 0 0 0 0 0 0 0 0 0 0 0 0 0 0 1 1 1 1 1 1 1 1 0 0
0 0 0 0 0 0 0 0 0 1 1 0 0 0 0 0 0 0 0 0 0 0 0 0 0 0 0 0 0 0 0 0 0 0 0 0 0 0 0 0 0 1 1 1 1 1 1 1 0
0 0 0 0 0 0 0 0 0 0 0 0 0 0 0 0 0 0 0 0 0 0 0 0 0 0 0 0 0 0 0 0 0 0 0 0 0 0 0 0 0 0 0 0 1 1 1 1 1